Location: Unspecified
(44.4377°N, 88.0525°W)
Time: 08:48:51
(UTC-05:00)

CZ-3 Stage 3 - Visible Passes

Search period start: 27 September 2016 00:00
Search period end: 07 October 2016 00:00
Orbit: 490 x 34713 km, 30.6° (Epoch: 25 September)

Date Brightness Start Highest point End Pass type
(mag) Time Alt. Az. Time Alt. Az. Time Alt. Az.
28 Sep 7.7 06:15:09 10° SE 12:29:07 57° SE 13:37:18 10° E visible
29 Sep 9.5 06:48:27 10° E 08:35:36 19° E 09:32:48 10° ENE visible
29 Sep 6.0 19:52:02 10° WNW 20:32:29 23° WSW 20:40:58 10° SSW visible
01 Oct 7.7 06:00:59 10° SE 12:19:21 58° SE 13:28:47 10° E visible
02 Oct 9.5 06:33:08 10° E 08:25:49 19° E 09:24:58 10° ENE visible
02 Oct 6.0 19:42:41 10° WNW 20:23:34 23° WSW 20:32:13 10° SSW visible
04 Oct 7.7 05:46:55 10° SE 12:09:32 58° SE 13:20:16 10° E visible
05 Oct 9.5 06:17:56 10° E 08:16:01 20° E 09:17:03 10° ENE visible
05 Oct 6.1 19:33:19 10° WNW 20:14:37 22° WSW 20:23:28 10° SSW visible
